QPF
0.00 0.00 0.00 0.00 0.00 0.00 0.00 0.00 0.00 0.00 0.00 0.00 0.00 0.00 0.00 0.00 0.00 0.00 0.00 0.00 0.00 0.00 0.00 0.00 0.00 0.00 0.00 0.00 0.00 0.00 0.00 0.00 0.00 0.00 0.00 0.00 0.00 0.00
0.00 0.00 0.00 0.00 0.00 0.00 0.00 0.00 0.00 0.00 0.00 0.00 0.00 0.00 0.00 0.00 0.00 0.00 0.00 0.00 0.00 0.00 0.00 0.00 0.00 0.00 0.00 0.00 0.00 0.00 0.00 0.00 0.00 0.00 0.00 0.00 0.00 0.00
0.00 0.00 0.00 0.00 0.00 0.00 0.00 0.00 0.00 0.00 0.00 0.00 0.00 0.00 0.00 0.00 0.00 0.00 0.00 0.00 0.00 0.00 0.00 0.00 0.00 0.00 0.00 0.00 0.00 0.00 0.00 0.00 0.00 0.00 0.00 0.00 0.00 0.00
0.00 0.00 0.00 0.00 0.00 0.00 0.00 0.00 0.00 0.00 0.00 0.00 0.00 0.00 0.00 0.00 0.00 0.00 0.00 0.00 0.00 0.00 0.00 0.00 0.00 0.00 0.00 0.00 0.00 0.00 0.00 0.00 0.00 0.00 0.00 0.00 0.00 0.00
0.00 0.00 0.00 0.00 0.00 0.00 0.00 0.00 0.00 0.00 0.00 0.00 0.00 0.00 0.00 0.00 0.00 0.00 0.00 0.00 0.00 0.00 0.00 0.00 0.00 0.00 0.00 0.00 0.00 0.00 0.00 0.00 0.00 0.00 0.00 0.00 0.00 0.00
0.00 0.00 0.00 0.00 0.00 0.00 0.00 0.00 0.00 0.00 0.00 0.00 0.00 0.00 0.00 0.00 0.00 0.00 0.00 0.00 0.00 0.00 0.00 0.00 0.00 0.00 0.00 0.00 0.00 0.00 0.00 0.00 0.00 0.00 0.00 0.00 0.00 0.00
0.00 0.00 0.00 0.00 0.00 0.00 0.00 0.00 0.00 0.00 0.00 0.00 0.00 0.00 0.00 0.00 0.00 0.00 0.00 0.00 0.00 0.00 0.00 0.00 0.00 0.00 0.00 0.00 0.00 0.00 0.00 0.00 0.00 0.00 0.00 0.00 0.00 0.00
0.00 0.00 0.00 0.00 0.00 0.00 0.00 0.00 0.00 0.00 0.00 0.00 0.00 0.00 0.00 0.00 0.00 0.00 0.00 0.00 0.00 0.00 0.00 0.00 0.00 0.00 0.00 0.00 0.00 0.00 0.00 0.00 0.00 0.00 0.00 0.00 0.00 0.00
0.00 0.00 0.00 0.00 0.00 0.00 0.00 0.00 0.00 0.00 0.00 0.00 0.00 0.00 0.00 0.00 0.00 0.00 0.00 0.00 0.00 0.00 0.00 0.00 0.00 0.00 0.00 0.00 0.00 0.00 0.00 0.00 0.00 0.00 0.00 0.00 0.00 0.00
0.00 0.00 0.00 0.00 0.00 0.00 0.00 0.00 0.00 0.00 0.00 0.00 0.00 0.00 0.00 0.00 0.00 0.00 0.00 0.00 0.00 0.00 0.00 0.00 0.00 0.00 0.00 0.00 0.00 0.00 0.00 0.00 0.00 0.00 0.00 0.00 0.00 0.00
0.00 0.00 0.00 0.00 0.00 0.00 0.00 0.00 0.00 0.00 0.00 0.00 0.00 0.00 0.00 0.00 0.00 0.00 0.00 0.00 0.00 0.00 0.00 0.00 0.00 0.00 0.00 0.00 0.00 0.00 0.00 0.00 0.00 0.00 0.00 0.00 0.00 0.00
0.00 0.00 0.00 0.00 0.00 0.00 0.00 0.00 0.00 0.00 0.00 0.00 0.00 0.00 0.00 0.00 0.00 0.00 0.00 0.00 0.00 0.00 0.00 0.00 0.00 0.00 0.00 0.00 0.00 0.00 0.00 0.00 0.00 0.00 0.00 0.00 0.00 0.00
0.00 0.00 0.00 0.00 0.00 0.00 0.00 0.00 0.00 0.00 0.00 0.00 0.00 0.00 0.00 0.00 0.00 0.00 0.00 0.00 0.00 0.00 0.00 0.00 0.00 0.00 0.00 0.00 0.00 0.00 0.00 0.00 0.00 0.00 0.00 0.00 0.00 0.00
0.00 0.00 0.00 0.00 0.00 0.00 0.00 0.00 0.00 0.00 0.00 0.00 0.00 0.00 0.00 0.00 0.00 0.00 0.00 0.00 0.00 0.00 0.00 0.00 0.00 0.00 0.00 0.00 0.00 0.00 0.00 0.00 0.00 0.00 0.00 0.00 0.00 0.00
0.00 0.00 0.00 0.00 0.00 0.00 0.00 0.00 0.00 0.00 0.00 0.00 0.00 0.00 0.00 0.00 0.00 0.00 0.00 0.00 0.00 0.00 0.00 0.00 0.00 0.00 0.00 0.00 0.00 0.00 0.00 0.00 0.00 0.00 0.00 0.00 0.00 0.00
0.00 0.00 0.00 0.00 0.00 0.00 0.00 0.00 0.00 0.00 0.00 0.00 0.00 0.00 0.00 0.00 0.00 0.00 0.00 0.00 0.00 0.00 0.00 0.00 0.00 0.00 0.00 0.00 0.00 0.00 0.00 0.00 0.00 0.00 0.00 0.00 0.00 0.00
0.00 0.00 0.00 0.00 0.00 0.00 0.00 0.00 0.00 0.00 0.00 0.00 0.00 0.00 0.00 0.00 0.00 0.00 0.00 0.00 0.00 0.00 0.00 0.00 0.00 0.00 0.00 0.00 0.00 0.00 0.00 0.00 0.00 0.00 0.00 0.00 0.00 0.00
0.00 0.00 0.00 0.00 0.00 0.00 0.00 0.00 0.00 0.00 0.00 0.00 0.00 0.00 0.00 0.00 0.00 0.00 0.00 0.00 0.00 0.00 0.00 0.00 0.00 0.00 0.00 0.00 0.00 0.00 0.00 0.00 0.00 0.00 0.00 0.00 0.00 0.00
0.00 0.00 0.00 0.00 0.00 0.00 0.00 0.00 0.00 0.00 0.00 0.00 0.00 0.00 0.00 0.00 0.00 0.00 0.00 0.00 0.00 0.00 0.00 0.00 0.00 0.00 0.00 0.00 0.00 0.00 0.00 0.00 0.00 0.00 0.00 0.00 0.00 0.00
0.00 0.00 0.00 0.00 0.00 0.00 0.00 0.00 0.00 0.00 0.00 0.00 0.00 0.00 0.00 0.00 0.00 0.00 0.00 0.00 0.00 0.00 0.00 0.00 0.00 0.00 0.00 0.00 0.00 0.00 0.00 0.00 0.00 0.00 0.00 0.00 0.00 0.00
0.00 0.00 0.00 0.00 0.00 0.00 0.00 0.00 0.00 0.00 0.00 0.00 0.00 0.00 0.00 0.00 0.00 0.00 0.00 0.00 0.00 0.00 0.00 0.00 0.00 0.00 0.00 0.00 0.00 0.00 0.00 0.00 0.00 0.00 0.00 0.00 0.00 0.00
0.00 0.00 0.00 0.00 0.00 0.00 0.00 0.00 0.00 0.00 0.00 0.00 0.00 0.00 0.00 0.00 0.00 0.00 0.00 0.00 0.00 0.00 0.00 0.00 0.00 0.00 0.00 0.00 0.00 0.00 0.00 0.00 0.00 0.00 0.00 0.00 0.00 0.00
0.00 0.00 0.00 0.00 0.00 0.00 0.00 0.00 0.00 0.00 0.00 0.00 0.00 0.00 0.00 0.00 0.00 0.00 0.00 0.00 0.00 0.00 0.00 0.00 0.00 0.00 0.00 0.00 0.00 0.00 0.00 0.00 0.00 0.00 0.00 0.00 0.00 0.00
MSLP
1014.10 1015.35 1016.42 1017.18 1017.56 1017.81 1018.09 1018.19 1018.48 1019.81 1020.44 1020.91 1021.48 1021.95 1022.46 1023.23 1023.78 1024.37 1024.67 1025.22 1025.60 1025.91 1026.13 1026.28 1026.35 1026.42 1026.55 1026.71 1026.56 1026.36 1026.27 1026.10 1025.74 1025.45 1024.95 1024.59 1024.07 1023.37
1014.07 1014.77 1015.78 1016.81 1017.35 1017.70 1018.00 1017.99 1018.21 1018.57 1019.46 1020.17 1021.10 1021.94 1022.10 1022.94 1023.51 1024.03 1024.23 1024.85 1025.44 1025.58 1025.81 1026.02 1026.24 1026.26 1026.39 1026.68 1026.62 1026.28 1026.20 1026.13 1025.56 1025.18 1024.83 1024.44 1023.87 1023.39
1013.51 1014.06 1015.25 1016.58 1017.29 1017.61 1018.02 1018.17 1018.21 1018.57 1019.41 1020.93 1021.26 1021.99 1022.28 1022.49 1023.00 1023.79 1023.95 1024.48 1024.77 1025.09 1025.51 1025.77 1026.11 1026.11 1026.22 1026.39 1026.43 1026.28 1026.25 1026.03 1025.74 1025.26 1024.77 1024.26 1023.85 1023.32
1012.55 1013.33 1014.18 1015.69 1017.02 1017.62 1017.97 1018.48 1018.19 1018.52 1019.46 1020.32 1021.15 1021.95 1022.16 1022.58 1022.53 1023.26 1023.88 1024.04 1024.14 1024.50 1025.07 1025.57 1025.84 1025.91 1025.89 1026.01 1026.24 1026.19 1026.16 1026.03 1025.76 1025.07 1024.69 1024.42 1023.88 1023.21
1011.74 1012.32 1013.48 1014.57 1015.34 1016.45 1017.17 1018.28 1018.40 1018.82 1019.21 1019.91 1021.22 1022.07 1022.37 1022.55 1022.66 1022.94 1023.38 1024.06 1024.15 1024.53 1025.01 1025.33 1025.66 1025.54 1025.58 1025.40 1025.63 1025.57 1025.93 1025.90 1025.80 1025.42 1024.65 1024.30 1023.88 1022.99
1010.79 1011.45 1012.11 1012.88 1013.86 1015.40 1016.61 1017.08 1017.90 1018.58 1019.28 1019.59 1020.67 1021.62 1021.93 1022.41 1022.50 1022.87 1023.37 1023.60 1023.79 1024.23 1024.80 1025.11 1025.16 1025.20 1025.34 1025.21 1025.39 1025.85 1026.01 1025.84 1025.42 1024.96 1024.63 1024.36 1023.88 1023.09
1009.81 1010.52 1011.27 1012.07 1013.20 1014.17 1015.08 1015.95 1016.77 1017.94 1018.75 1019.58 1020.16 1020.72 1021.47 1021.84 1021.88 1022.24 1022.48 1022.99 1023.56 1023.90 1024.15 1024.65 1024.84 1025.13 1025.08 1025.24 1025.43 1025.71 1025.75 1025.66 1025.46 1025.06 1024.44 1024.16 1023.67 1022.99
1008.96 1009.96 1010.79 1011.77 1012.90 1013.60 1014.15 1014.89 1015.15 1016.24 1017.44 1018.61 1019.24 1019.97 1020.11 1020.47 1021.19 1021.54 1022.35 1023.02 1023.54 1023.88 1023.96 1024.39 1025.02 1024.95 1025.03 1025.03 1025.65 1025.70 1025.68 1025.63 1025.53 1024.95 1024.40 1023.98 1023.49 1022.87
1008.26 1009.23 1010.18 1011.04 1011.89 1012.88 1013.95 1014.36 1015.15 1015.67 1016.15 1016.93 1017.75 1018.17 1019.13 1019.58 1019.98 1021.11 1021.57 1022.27 1022.85 1023.61 1023.84 1024.66 1025.23 1025.14 1025.43 1025.46 1025.58 1025.50 1025.66 1025.47 1025.27 1024.80 1024.28 1023.80 1023.20 1022.60
1007.15 1008.03 1008.90 1009.92 1011.01 1011.99 1013.14 1014.16 1014.67 1015.35 1016.04 1016.35 1016.51 1017.08 1017.49 1018.55 1019.05 1019.90 1020.60 1022.11 1023.23 1024.28 1024.30 1024.72 1025.21 1025.32 1025.32 1025.26 1025.48 1025.69 1025.53 1025.42 1024.87 1024.56 1024.33 1023.86 1023.34 1022.78
1006.18 1007.03 1007.80 1008.79 1009.79 1010.98 1012.27 1013.34 1014.35 1014.85 1015.49 1016.16 1016.44 1016.69 1017.15 1018.03 1018.71 1019.68 1020.87 1021.81 1023.08 1023.97 1024.55 1024.48 1025.11 1024.99 1025.15 1025.31 1025.49 1025.65 1025.65 1025.29 1024.62 1024.44 1024.29 1023.97 1023.44 1022.83
1005.48 1006.17 1007.10 1007.75 1009.07 1010.08 1011.09 1012.44 1013.65 1014.19 1014.94 1016.23 1016.69 1016.84 1017.31 1018.22 1018.54 1018.35 1019.35 1021.02 1022.56 1023.62 1023.92 1024.15 1024.60 1024.74 1025.18 1025.37 1025.44 1025.41 1025.37 1025.13 1024.80 1024.65 1024.10 1023.80 1023.51 1022.87
1004.62 1005.28 1006.62 1007.27 1008.16 1009.15 1010.16 1011.27 1011.98 1012.70 1014.21 1015.56 1016.30 1017.14 1017.92 1018.50 1019.30 1019.19 1019.30 1020.04 1021.38 1022.48 1023.09 1023.39 1024.35 1024.70 1024.82 1025.09 1025.31 1025.31 1025.13 1024.95 1024.88 1024.60 1024.12 1023.58 1023.24 1023.03
1002.89 1004.28 1005.39 1006.47 1007.37 1008.58 1009.62 1010.40 1011.54 1012.62 1013.86 1015.03 1016.23 1016.94 1018.09 1018.94 1019.57 1019.81 1020.09 1020.72 1021.16 1021.40 1022.72 1023.21 1023.99 1024.41 1024.48 1025.07 1025.61 1025.49 1025.06 1025.11 1024.94 1024.47 1024.11 1023.86 1023.18 1022.87
1002.19 1003.06 1004.54 1005.63 1006.49 1007.87 1008.70 1009.91 1011.14 1012.07 1013.19 1014.54 1015.37 1016.27 1017.30 1018.54 1019.75 1020.28 1021.08 1021.43 1021.95 1022.76 1023.32 1023.83 1023.92 1024.53 1024.65 1025.11 1025.98 1026.09 1025.89 1025.09 1025.16 1025.02 1024.69 1024.36 1023.68 1022.96
1001.81 1002.98 1003.52 1005.11 1006.09 1006.77 1008.67 1009.70 1010.40 1011.18 1012.02 1013.36 1014.63 1016.06 1017.56 1018.62 1019.32 1019.81 1020.93 1021.81 1022.27 1023.83 1024.37 1024.31 1024.89 1024.92 1025.21 1025.44 1025.97 1026.31 1026.36 1026.06 1025.51 1025.17 1025.06 1024.26 1023.60 1023.01
1000.88 1002.51 1003.76 1004.96 1006.12 1006.91 1008.23 1009.09 1010.19 1010.96 1011.89 1012.98 1014.57 1015.57 1017.23 1018.14 1019.18 1019.75 1020.30 1021.15 1022.05 1023.65 1024.64 1024.96 1025.48 1025.26 1025.33 1025.43 1026.05 1026.46 1026.31 1026.31 1025.93 1025.54 1024.89 1024.25 1023.59 1023.04
999.99 1001.57 1002.50 1004.00 1005.23 1005.70 1006.77 1008.09 1009.68 1010.37 1011.43 1012.61 1014.00 1014.95 1016.42 1017.47 1018.44 1019.64 1020.00 1020.71 1021.50 1023.08 1023.97 1024.78 1025.10 1025.14 1025.67 1026.37 1026.55 1026.54 1026.63 1026.75 1026.28 1026.11 1025.27 1024.70 1023.71 1023.07
998.30 999.97 1000.88 1002.97 1003.73 1004.34 1005.04 1006.96 1008.20 1009.72 1010.80 1011.59 1013.14 1014.48 1015.65 1016.96 1017.84 1019.02 1019.96 1020.75 1021.77 1022.92 1023.80 1024.18 1024.51 1024.77 1025.71 1026.13 1026.70 1027.09 1026.81 1027.04 1026.71 1025.86 1025.71 1025.36 1024.94 1024.11
997.47 998.66 999.68 1001.62 1002.68 1003.12 1004.55 1006.08 1007.66 1008.85 1010.07 1011.20 1012.54 1013.79 1014.71 1015.71 1017.29 1018.27 1019.17 1019.97 1021.56 1022.75 1023.92 1024.48 1024.44 1024.67 1025.06 1025.59 1026.30 1026.78 1027.02 1027.07 1026.83 1025.95 1025.88 1025.51 1025.01 1024.37
996.88 997.68 998.98 1000.11 1001.56 1002.20 1003.84 1005.39 1006.62 1007.61 1008.71 1010.43 1012.03 1012.95 1013.89 1014.98 1016.51 1017.54 1018.65 1019.62 1020.91 1022.37 1023.71 1024.43 1024.80 1025.20 1025.50 1026.10 1026.34 1026.60 1026.93 1026.86 1026.63 1026.53 1026.20 1025.46 1025.35 1025.05
996.49 997.46 998.41 998.75 1000.49 1001.42 1003.00 1004.40 1005.75 1006.98 1008.04 1009.81 1011.21 1012.21 1013.11 1014.17 1015.55 1016.96 1017.97 1019.07 1020.52 1021.91 1023.28 1024.80 1025.57 1025.77 1025.75 1026.00 1026.45 1026.69 1026.93 1026.54 1026.36 1026.35 1026.15 1026.10 1026.32 1026.29
996.63 997.22 997.53 998.66 999.65 1000.53 1002.32 1003.19 1004.34 1005.97 1007.36 1008.72 1010.14 1011.40 1012.40 1013.57 1014.95 1016.17 1017.65 1019.09 1020.20 1021.90 1023.17 1024.65 1025.50 1025.80 1026.24 1026.61 1026.61 1026.66 1027.03 1026.69 1026.54 1026.20 1025.88 1025.98 1026.23 1026.23
Thickness
5635 5632 5632 5633 5639 5643 5646 5652 5655 5646 5647 5648 5646 5645 5643 5639 5637 5635 5631 5626 5623 5619 5616 5612 5610 5605 5601 5595 5593 5590 5585 5583 5580 5576 5573 5568 5565 5563
5623 5627 5627 5625 5628 5632 5636 5643 5649 5652 5651 5649 5642 5637 5639 5634 5630 5627 5626 5621 5615 5613 5610 5607 5603 5600 5594 5588 5585 5583 5580 5575 5576 5572 5567 5562 5560 5554
5613 5617 5622 5616 5618 5622 5624 5631 5638 5642 5641 5629 5631 5628 5628 5628 5626 5620 5618 5615 5610 5609 5604 5601 5596 5593 5589 5584 5581 5579 5573 5570 5566 5564 5560 5557 5553 5548
5611 5614 5617 5611 5609 5612 5615 5618 5628 5631 5630 5628 5625 5619 5621 5620 5621 5615 5609 5609 5607 5606 5601 5596 5591 5589 5586 5582 5576 5573 5568 5563 5559 5558 5553 5548 5545 5542
5604 5609 5611 5610 5611 5609 5610 5610 5615 5615 5619 5619 5611 5608 5609 5611 5611 5608 5604 5599 5599 5598 5596 5590 5585 5584 5583 5581 5574 5572 5563 5559 5553 5549 5548 5544 5539 5538
5598 5604 5609 5613 5614 5611 5606 5610 5609 5608 5608 5610 5606 5602 5603 5603 5604 5601 5598 5596 5596 5594 5589 5585 5583 5580 5577 5575 5570 5563 5558 5553 5551 5549 5543 5536 5532 5532
5595 5600 5604 5609 5608 5608 5607 5609 5607 5605 5601 5601 5603 5601 5599 5598 5601 5599 5600 5597 5593 5589 5587 5581 5577 5572 5570 5569 5565 5560 5554 5550 5546 5542 5540 5533 5528 5528
5589 5590 5594 5596 5596 5601 5603 5606 5611 5610 5605 5597 5599 5600 5602 5604 5601 5598 5596 5591 5588 5584 5583 5579 5572 5569 5567 5565 5558 5554 5549 5545 5540 5538 5534 5529 5525 5523
5581 5583 5585 5591 5593 5596 5593 5600 5602 5604 5607 5606 5603 5604 5602 5601 5602 5595 5596 5593 5589 5581 5579 5572 5567 5564 5558 5556 5553 5550 5545 5541 5537 5533 5530 5528 5524 5520
5579 5581 5584 5588 5588 5590 5589 5590 5595 5598 5598 5601 5605 5602 5605 5601 5601 5597 5595 5583 5576 5569 5570 5567 5560 5556 5552 5552 5548 5542 5540 5535 5534 5530 5526 5523 5518 5514
5573 5577 5581 5585 5587 5586 5584 5583 5584 5588 5591 5590 5594 5598 5602 5598 5596 5591 5584 5581 5572 5565 5561 5562 5554 5553 5548 5544 5540 5536 5532 5530 5531 5526 5522 5518 5515 5510
5563 5569 5572 5581 5579 5581 5583 5579 5577 5583 5584 5580 5585 5592 5593 5589 5589 5592 5589 5579 5567 5562 5558 5557 5550 5548 5545 5537 5533 5531 5526 5524 5522 5518 5517 5514 5511 5506
5557 5564 5564 5570 5573 5576 5577 5578 5582 5584 5581 5578 5579 5579 5578 5577 5574 5580 5582 5579 5570 5562 5558 5555 5545 5542 5540 5536 5530 5526 5523 5519 5517 5513 5511 5509 5506 5501
5561 5561 5562 5564 5566 5567 5569 5575 5572 5573 5575 5575 5573 5572 5567 5565 5564 5568 5570 5569 5566 5565 5555 5551 5542 5539 5536 5531 5522 5518 5518 5513 5511 5511 5508 5502 5500 5494
5550 5558 5555 5559 5560 5559 5566 5564 5564 5568 5569 5568 5571 5569 5565 5559 5555 5557 5555 5555 5554 5548 5543 5539 5536 5530 5528 5523 5515 5508 5506 5509 5503 5500 5499 5496 5494 5492
5533 5539 5550 5548 5549 5555 5551 5553 5562 5567 5569 5567 5566 5559 5552 5551 5552 5552 5548 5543 5542 5532 5530 5529 5522 5521 5518 5515 5508 5503 5499 5497 5497 5496 5493 5494 5491 5487
5524 5524 5528 5528 5530 5538 5541 5549 5553 5557 5560 5560 5554 5553 5545 5545 5543 5544 5543 5539 5536 5526 5519 5517 5513 5514 5512 5510 5504 5498 5497 5493 5492 5490 5491 5491 5489 5483
5510 5513 5523 5523 5525 5538 5545 5548 5545 5550 5552 5551 5548 5548 5543 5541 5538 5533 5535 5534 5531 5522 5517 5511 5510 5509 5504 5498 5495 5493 5490 5486 5487 5483 5486 5484 5484 5479
5508 5512 5528 5519 5525 5537 5551 5548 5549 5544 5544 5547 5544 5540 5536 5533 5532 5528 5525 5524 5520 5514 5509 5508 5506 5506 5502 5501 5487 5484 5486 5481 5481 5485 5481 5477 5471 5470
5505 5516 5524 5520 5520 5532 5541 5543 5539 5539 5538 5537 5535 5533 5533 5531 5525 5523 5521 5520 5511 5505 5498 5497 5500 5499 5502 5499 5488 5482 5480 5478 5477 5481 5477 5472 5467 5460
5494 5511 5515 5520 5523 5535 5534 5532 5534 5536 5537 5533 5529 5530 5529 5526 5520 5518 5516 5514 5508 5500 5495 5491 5490 5487 5486 5480 5482 5481 5476 5478 5477 5473 5470 5469 5462 5453
5482 5497 5508 5521 5521 5529 5525 5525 5525 5527 5531 5527 5525 5523 5524 5523 5519 5513 5512 5508 5503 5496 5490 5478 5476 5476 5477 5478 5476 5474 5473 5476 5475 5472 5468 5464 5454 5444
5463 5484 5503 5504 5515 5522 5516 5520 5527 5524 5525 5526 5522 5519 5518 5517 5513 5510 5503 5499 5495 5484 5478 5470 5468 5469 5465 5465 5469 5470 5468 5471 5469 5468 5467 5461 5451 5439